Location: Silent Lake
(44.9206°N, 78.0708°W)
Time: 01:13:56
(UTC-04:00)

USA 234 - Pass Details

Date: 19 April 2018
Orbit: 1099 x 1109 km, 123.0° (Epoch: 15 May)

Event Time Altitude Azimuth Distance (km) Brightness Sun altitude
Exits shadow 23:27:51 61° 93° (E) 1,240 3.3 -28.9°
Maximum altitude 23:28:59 74° 34° (NE) 1,147 3.3 -29.0°
Drops below altitude 10° 23:35:32 10° 311° (NW) 2,976 6.3 -29.6°
Sets 23:38:02 0° 310° (NW) 3,937 7.1 -29.8°
